FW6727 Weather Reports


Display with metric or nautical units.
time (UTC)temp
F
wind
direction
speed
MPH
gust
MPH
rain 1hr
in
rain 24hr
in
rain mn
in
humidity
%
barometer
mb
20260508224542 66 137 1.0 3.0 0.00 0.00 0.00 71 1014.6
20260508223042 67 121 0.0 6.0 0.00 0.00 0.00 70 1014.5
20260508221538 68 200 0.0 3.0 0.00 0.00 0.00 69 1014.4
20260508220039 68 0 0.0 1.0 0.00 0.00 0.00 62 1014.6
20260508214545 68 0 0.0 4.0 0.00 0.00 0.00 62 1014.5
20260508213048 68 0 1.0 4.0 0.00 0.00 0.00 62 1014.5
20260508211542 69 0 0.0 4.0 0.00 0.00 0.00 60 1014.5
20260508210038 69 173 2.0 5.0 0.00 0.00 0.00 59 1014.7
20260508204537 69 248 2.0 6.0 0.00 0.00 0.00 58 1014.6
20260508203035 70 188 0.0 3.0 0.00 0.00 0.00 57 1014.8
20260508201547 69 0 1.0 8.0 0.00 0.00 0.00 57 1015.0
20260508200038 70 132 2.0 10.0 0.00 0.00 0.00 56 1015.1
20260508194537 70 138 3.0 10.0 0.00 0.00 0.00 57 1015.2
20260508193045 70 130 1.0 8.0 0.00 0.00 0.00 55 1015.5
20260508191539 70 163 1.0 6.0 0.00 0.00 0.00 55 1015.9
20260508190036 70 318 3.0 8.0 0.00 0.00 0.00 53 1015.9
20260508184540 70 256 4.0 9.0 0.00 0.00 0.00 52 1016.0
20260508183038 69 133 2.0 9.0 0.00 0.00 0.00 55 1016.4
20260508181537 70 135 4.0 10.0 0.00 0.00 0.00 54 1016.5
20260508180037 68 98 1.0 6.0 0.00 0.00 0.00 56 1016.8
20260508174539 69 124 5.0 13.0 0.00 0.00 0.00 55 1017.0
20260508173039 69 134 2.0 13.0 0.00 0.00 0.00 58 1017.3
20260508171538 68 267 3.0 10.0 0.00 0.00 0.00 57 1017.2
20260508170037 68 123 3.0 9.0 0.00 0.00 0.00 54 1017.4
20260508164544 68 267 1.0 11.0 0.00 0.00 0.00 56 1017.7
20260508163038 66 240 4.0 13.0 0.00 0.00 0.00 58 1017.9
20260508161543 67 96 2.0 11.0 0.00 0.00 0.00 58 1018.1
20260508160037 65 150 1.0 9.0 0.00 0.00 0.00 61 1018.4
20260508154537 66 101 4.0 10.0 0.00 0.00 0.00 58 1018.3
20260508153037 66 95 3.0 8.0 0.00 0.00 0.00 59 1018.7
20260508151542 65 86 2.0 9.0 0.00 0.00 0.00 60 1018.7
20260508150040 65 98 4.0 10.0 0.00 0.00 0.00 60 1018.6
20260508144538 64 126 2.0 8.0 0.00 0.00 0.00 65 1018.6
20260508143036 64 99 4.0 8.0 0.00 0.00 0.00 66 1018.6
20260508141537 63 110 3.0 8.0 0.00 0.00 0.00 64 1018.6
20260508140037 61 115 1.0 7.0 0.00 0.00 0.00 69 1018.9
20260508134536 60 12 0.0 3.0 0.00 0.02 0.00 80 1019.2
20260508133037 59 0 1.0 4.0 0.00 0.02 0.00 83 1019.2
20260508131541 58 349 0.0 3.0 0.00 0.02 0.00 84 1019.1
20260508130036 57 0 0.0 0.0 0.00 0.02 0.00 90 1019.0
20260508124535 56 0 0.0 2.0 0.00 0.09 0.00 92 1018.8
20260508123040 54 17 0.0 2.0 0.00 0.09 0.00 94 1018.5
20260508121542 52 18 0.0 2.0 0.00 0.09 0.00 95 1018.2
20260508120042 50 0 0.0 3.0 0.00 0.09 0.00 96 1018.1
20260508114535 48 0 0.0 0.0 0.00 0.16 0.00 95 1018.0
20260508113040 47 0 0.0 0.0 0.00 0.16 0.00 95 1017.7
20260508111557 47 0 0.0 0.0 0.00 0.16 0.00 95 1017.5
20260508110036 47 0 0.0 0.0 0.00 0.16 0.00 95 1017.0
20260508104538 47 0 0.0 0.0 0.00 0.28 0.00 95 1016.8
20260508103038 47 0 0.0 0.0 0.00 0.28 0.00 95 1016.5
20260508101535 47 0 0.0 0.0 0.00 0.28 0.00 95 1016.3
20260508100034 47 26 0.0 3.0 0.00 0.28 0.00 94 1016.0
20260508094537 48 28 0.0 2.0 0.00 0.31 0.00 94 1015.9
20260508093036 48 0 0.0 0.0 0.00 0.31 0.00 94 1015.8
20260508091544 48 0 0.0 0.0 0.00 0.31 0.00 94 1015.7
20260508090040 49 0 0.0 0.0 0.00 0.31 0.00 94 1015.6
20260508084549 49 0 0.0 0.0 0.00 0.36 0.00 94 1015.4
20260508083049 49 0 0.0 0.0 0.00 0.36 0.00 94 1015.3
20260508081544 49 0 0.0 0.0 0.00 0.36 0.00 94 1015.4
20260508080035 49 0 0.0 0.0 0.00 0.36 0.00 94 1015.3
20260508074538 49 0 0.0 1.0 0.00 0.60 0.00 94 1015.3
20260508073036 50 296 1.0 2.0 0.00 0.60 0.00 94 1015.3
20260508071538 50 0 0.0 3.0 0.00 0.60 0.00 93 1015.4
20260508070038 50 300 1.0 2.0 0.00 0.60 0.00 93 1015.3
20260508064538 50 0 0.0 0.0 0.00 0.67 0.00 93 1015.3
20260508063036 51 0 0.0 1.0 0.00 0.67 0.00 93 1015.2
20260508061541 51 299 1.0 2.0 0.00 0.67 0.00 93 1015.2
20260508060042 51 299 0.0 2.0 0.00 0.67 0.00 93 1015.3
20260508054543 52 0 0.0 1.0 0.00 0.82 0.00 92 1015.2
20260508053035 52 300 0.0 2.0 0.00 0.82 0.00 92 1015.3
20260508051538 52 300 1.0 3.0 0.00 0.82 0.00 92 1015.3
20260508050036 53 0 0.0 0.0 0.00 0.82 0.00 92 1015.3
20260508044536 53 0 0.0 0.0 0.00 1.01 0.00 91 1015.3
20260508043040 54 0 0.0 0.0 0.00 1.01 0.00 91 1015.1
20260508041536 54 0 0.0 0.0 0.00 1.01 0.00 90 1015.0
20260508040037 55 0 0.0 0.0 0.00 1.01 0.00 89 1014.9
20260508034538 55 0 0.0 0.0 0.00 1.01 1.01 88 1014.7
20260508033037 56 0 0.0 2.0 0.00 1.01 1.01 86 1014.9
20260508031536 57 320 0.0 3.0 0.00 1.01 1.01 85 1014.9
20260508030036 58 0 0.0 2.0 0.00 1.01 1.01 83 1014.5
20260508024535 59 281 1.0 3.0 0.00 1.02 1.01 81 1014.4
20260508023036 60 280 2.0 4.0 0.00 1.02 1.01 78 1014.3
20260508021542 61 0 0.0 3.0 0.00 1.02 1.01 78 1013.9
20260508020039 61 316 1.0 2.0 0.00 1.02 1.01 75 1014.0
20260508014535 62 315 1.0 4.0 0.00 1.08 1.01 75 1013.7
20260508013037 62 282 3.0 9.0 0.00 1.08 1.01 71 1013.2
20260508011535 63 263 5.0 9.0 0.00 1.08 1.01 71 1013.0
20260508010041 64 279 3.0 8.0 0.00 1.08 1.01 70 1012.9
20260508004541 64 270 3.0 12.0 0.00 2.13 1.01 69 1012.5
20260508003043 65 270 7.0 14.0 0.00 2.13 1.01 67 1012.3
20260508001543 66 278 7.0 15.0 0.00 2.13 1.01 67 1012.1
20260508000041 67 267 4.0 15.0 0.00 2.13 1.01 66 1011.9
20260507234543 68 284 5.0 10.0 0.00 2.20 1.01 63 1011.7
20260507233037 69 292 5.0 12.0 0.00 2.20 1.01 62 1011.4
20260507231540 70 271 7.0 12.0 0.00 2.20 1.01 61 1011.2
20260507230035 71 312 9.0 16.0 0.00 2.20 1.01 60 1010.9